Weather in Khlebodarovka

Russia / Omsk Oblast     53°46′28″N   73°28′38″E
temp.,
°C
wind,
m/s
gust,
m/s
humid.,
%
clouds,
%
prec.,
mm/h
press.,
hPa
HPBL,
m
2 july, sat
sat200:00+14wnw4881100 0.1 1009398
03:00+13wnw378496 0.0 1009368
06:00+12wnw378874 0.0 1009354
09:00+14wnw577899 0.0 1010601
12:00+18wnw566475 0.8 10091195
15:00+19nw565560 0.9 10091361
18:00+18nw3656100 1.1 1009203
21:00+16n22686 0.0 100948
3 july, sun
sun300:00+13nnw227868 0.0 100931
03:00+13nw2376100 0.0 100970
06:00+13nw237999 0.0 1009130
09:00+16nw336575 0.0 1010526
12:00+19nnw335251 0.6 10091320
15:00+20nnw334186 0.1 10091904
18:00+21n223919 0.1 10082006
21:00+17e33569 0.0 100829
4 july, mon
mon400:00+15se34597 0.0 100755
03:00+14se336210 0.0 100729
06:00+14sse3568100 0.0 100686
09:00+18e3354100 0.0 1005337
12:00+21e6742100 0.0 10031322
15:00+20ese5748100 0.0 1002860
18:00+19ene8105299 0.0 999785
21:00+17nne7136571 0.2 998442
5 july, tue
tue500:00+15nne91478100 0.7 997512
03:00+15nne81480100 0.8 995494
06:00+15nne91685100 1.4 994570
09:00+16nne91281100 1.3 995842
12:00+17nne81183100 1.8 9961027
15:00+15n91391100 0.5 998699
18:00+13nnw91493100 1.1 1001752
21:00+14nnw81292100 1.1 1003878
6 july, wed
wed600:00+13nnw71389100 1.2 1005554
03:00+12nnw6128795 0.1 1006384
06:00+12nw51085100 0.1 1008341
09:00+16nnw796527 0.0 1009577
12:00+19nnw664758 0.0 10091924
15:00+18nnw554887 0.0 10111389
18:00+18nw345070 0.0 1011987
21:00+15nw22639 0.0 101222